Location: B
(0.0000°N, 0.0000°E)
Time: 01:15:16
(UTC+01:00)

ISS - All Passes

Search period start: 25 February 2017 00:00
Search period end: 07 March 2017 00:00
Orbit: 399 x 408 km, 51.6° (Epoch: 25 February)

Date Brightness Start Highest point End Pass type
(mag) Time Alt. Az. Time Alt. Az. Time Alt. Az.
25 Feb - 06:01:04 10° SSW 06:04:10 39° SE 06:07:15 10° NE visible
25 Feb - 17:35:16 10° N 17:37:55 23° NE 17:40:34 10° ESE daylight
26 Feb - 05:09:43 10° SSE 05:11:41 15° SE 05:13:39 10° E visible
26 Feb - 06:45:49 10° W 06:47:57 16° NW 06:50:04 10° NNW visible
26 Feb - 18:18:56 10° WNW 18:21:41 25° SW 18:24:27 10° S daylight
27 Feb - 05:52:20 10° SW 05:55:27 43° NW 05:58:35 10° NNE visible
27 Feb - 17:25:58 10° NW 17:29:12 79° SW 17:32:27 10° SSE daylight
28 Feb - 04:59:45 10° SSW 05:02:59 57° SE 05:06:12 10° NE visible
28 Feb - 16:33:46 10° N 16:36:43 32° NE 16:39:39 10° ESE daylight
01 Mar - 04:08:00 10° S 04:10:28 20° SE 04:12:57 10° ENE night (unlit)
01 Mar - 05:45:24 10° WNW 05:46:44 12° NW 05:48:03 10° NNW night (unlit)
01 Mar - 15:42:44 10° NNE 15:44:11 12° NE 15:45:39 10° E daylight
01 Mar - 17:18:04 10° WNW 17:20:26 19° SW 17:22:50 10° S daylight
02 Mar - 04:51:15 10° WSW 04:54:12 30° NW 04:57:07 10° N night (unlit)
02 Mar - 16:24:44 10° NW 16:27:55 53° SW 16:31:06 10° SSE daylight
03 Mar - 03:58:24 10° SSW 04:01:40 84° SE 04:04:56 10° NE night (unlit)
03 Mar - 15:32:16 10° NNW 15:35:23 45° NE 15:38:31 10° SE daylight
04 Mar - 03:06:18 10° S 03:09:08 27° SE 03:11:57 10° ENE night (unlit)
04 Mar - 14:40:40 10° NNE 14:42:51 17° NE 14:45:02 10° E daylight
04 Mar - 16:17:16 10° W 16:19:05 14° SW 16:20:54 10° SSW daylight
05 Mar - 02:15:51 10° SE 02:16:33 10° SE 02:17:15 10° ESE night (unlit)
05 Mar - 03:50:11 10° WSW 03:52:49 22° NW 03:55:27 10° N night (unlit)
05 Mar - 15:23:29 10° NW 15:26:31 37° SW 15:29:34 10° SSE daylight
06 Mar - 02:57:01 10° SW 03:00:15 67° NW 03:03:28 10° NNE night (unlit)
06 Mar - 14:30:43 10° NNW 14:33:57 67° NE 14:37:11 10° SE daylight
